GUOWANG

operational
NORAD ID: 66916 Country: Unknown
LEOCIRCULAR

About GUOWANG

Description loading...

Live Position

Loading 3D Globe...

Upcoming Passes

Altitude History

Altitude vs Time

uPlot chart will show altitude changes over time

Two-Line Element Set

1 66916U 25286B 25340.51630253 -.00000123 00000-0 17671-4 0 9993
2 66916 50.0119 142.6984 0008093 262.9615 97.0370 14.05953890 34
Epoch: Dec 6, 2025 • Age: 17 hours

Current Status

Altitude 875.3 km
Velocity 7.42 km/s
Sub-Earth Point 13.76°N, 7.71°W
Type other

Large Constellations

Loading constellations...